Weather in Lopaty

Russia / Kostroma Oblast     57°56′05″N   43°37′26″E
temp.,
°C
wind,
m/s
gust,
m/s
humid.,
%
clouds,
%
prec.,
mm/h
press.,
hPa
HPBL,
m
11 april, sun
sun1100:00−1s29910 0.0 1026149
03:00−1ssw310920 0.0 1026194
06:00−1ssw311910 0.0 1026209
09:00+5sw47745 0.0 1028376
12:00+9wsw46675 0.0 1028808
15:00+10wsw466785 0.0 10301219
18:00+7w1490100 0.0 103295
21:00+5wsw1189100 0.0 103410
12 april, mon
mon1200:00+4nnw119363 0.0 103527
03:00+1e249616 0.0 103761
06:00+2ene2491100 0.0 1038106
09:00+7ese237988 0.0 1038267
12:00+12ese24635 0.0 1037915
15:00+13se346083 0.0 10361111
18:00+10ese3778100 0.0 1035279
21:00+6se31094100 0.0 1035346
13 april, tue
tue1300:00+4se3119599 0.0 1034345
03:00+4se3897100 0.0 1032290
06:00+4sse3998100 0.0 1031266
09:00+10s3682100 0.0 1030376
12:00+15ssw4862100 0.0 1028656
15:00+17ssw4858100 0.0 1027764
18:00+14s3874100 0.0 1026236
21:00+10s31084100 0.0 1026198
14 april, wed
wed1400:00+8s3879100 0.0 1026136
03:00+7ssw2682100 0.0 1026109
06:00+6s268476 0.0 1025111
09:00+12ssw3660100 0.0 1024339
12:00+17ssw47482 0.0 1023730
15:00+18ssw57436 0.0 10221210
18:00+15s495495 0.0 1021334
21:00+11s3106796 0.0 1022181
15 april, thu
thu1500:00+10ssw2869100 0.0 1021152
03:00+8ssw267849 0.0 1020111
06:00+7sw2479100 0.0 101970
09:00+12sw2459100 0.0 1018318
12:00+16wsw2446100 0.0 1018982
15:00+16nw4453100 0.0 10171199
18:00+7n5780100 0.0 1019571
21:00+3n51195100 1.5 1020586